User: anonymous   Login
Location: Hamburg
(53.5500°N, 10.0000°E)
Time: 12:56:57
(UTC+02:00)
Language:

Iridium 10 - Orbit

View from above orbital plane
View from above orbital plane
View from above satellite
View from above satellite

Ground track
Ground track

The orbit data is extracted from the following two-line orbital elements,

1 24839U 97030D   15108.20604318  .00000297  00000-0  98813-4 0  9995
2 24839 086.3943 320.7222 0002086 089.9552 015.7315 14.34222118933581
Epoch (UTC): 18 April 2015 04:56:42
Eccentricity: 0.0002086
inclination: 86.3943°
perigee height: 776 km
apogee height: 779 km
right ascension of ascending node: 320.7222°
argument of perigee: 89.9552°
revolutions per day: 14.34222118
mean anomaly at epoch: 15.7315°
orbit number at epoch: 93358

The dashed part of the orbit path shows where the satellite is in the earth's shadow,  

DLR